McGregor, MN

10:48 AM CDT on August 20, 2017 (GMT -0500)
McGregor

Weather History for KHZX - March, 2013

Change the Weather History Date:

Monday, March 18, 2013

  Actual Average (KAIT) Record (KAIT)
Temperature  
Mean Temperature 19 °F -  
Max Temperature 26 °F 38 °F 75 °F (2012)
Min Temperature 12 °F 17 °F -11 °F (1967)
Degree Days  
Heating Degree Days 46    
Moisture  
Dew Point 17 °F    
Average Humidity 81    
Maximum Humidity 93    
Minimum Humidity 59    
Precipitation  
Precipitation 0.01 in - - ()
Sea Level Pressure  
Sea Level Pressure 29.59 in    
Wind  
Wind Speed 13 mph (SSW)    
Max Wind Speed 20 mph    
Max Gust Speed 30 mph    
Visibility 5 miles    
Events      
Averages and records for this station are not official NWS values.
T = Trace of Precipitation, MM = Missing Value Source: NWS Daily Summary

Daily Weather History Graph

Daily Weather History Graph

Search for Another Location

Airport or City:

Trip Planner

Search our weather history database for the weather conditions in past years. The results will help you decide how hot, cold, wet, or windy it might be!

Date:

Astronomy

Mar. 18, 2013 Rise Set
Actual Time 7:19 AM CDT 7:23 PM CDT
Civil Twilight 6:49 AM CDT 7:53 PM CDT
Nautical Twilight 6:14 AM CDT 8:29 PM CDT
Astronomical Twilight 5:38 AM CDT 9:05 PM CDT
Moon 10:59 AM CDT (3/18) 1:43 AM CDT (3/18)
Length of Visible Light 13h 04m
Length of Day
12h 03m
Waxing Crescent, 41% of the Moon is Illuminated
Mar 18
Waxing Crescent
Mar 19
First Quarter
Mar 27
Full
Apr 2
Last Quarter
Apr 10
New

Hourly Weather History & Observations

Time (CDT) Temp. Windchill Dew Point Humidity Pressure Visibility Wind Dir Wind Speed Gust Speed Precip Events Conditions
12:13 AM 23.0 °F 12.4 °F 10.4 °F 59% 29.83 in 10.0 mi SE 10.4 mph - N/A   Overcast
12:32 AM 23.0 °F 11.1 °F 12.2 °F 63% 29.81 in 10.0 mi SE 12.7 mph - N/A   Overcast
12:53 AM 23.0 °F 11.7 °F 12.2 °F 63% 29.80 in 10.0 mi SE 11.5 mph 16.1 mph N/A   Overcast
1:13 AM 23.0 °F 11.1 °F 14.0 °F 68% 29.78 in 10.0 mi SE 12.7 mph 18.4 mph N/A   Overcast
1:32 AM 23.0 °F 10.1 °F 14.0 °F 68% 29.75 in 10.0 mi SE 15.0 mph 20.7 mph N/A   Overcast
1:53 AM 23.0 °F 10.1 °F 14.0 °F 68% 29.74 in 10.0 mi SE 15.0 mph 21.9 mph N/A   Overcast
2:13 AM 23.0 °F 9.2 °F 14.0 °F 68% 29.71 in 10.0 mi SE 17.3 mph 25.3 mph N/A   Overcast
2:32 AM 23.0 °F 10.1 °F 17.6 °F 80% 29.68 in 3.0 mi SE 15.0 mph 28.8 mph N/A   Overcast
2:52 AM 23.0 °F 11.7 °F 17.6 °F 80% 29.71 in 10.0 mi SSE 11.5 mph 21.9 mph N/A   Overcast
3:10 AM 23.0 °F 10.6 °F 17.6 °F 80% 29.71 in 1.0 mi SE 13.8 mph 19.6 mph N/A   Overcast
3:29 AM 23.0 °F 11.7 °F 19.4 °F 86% 29.70 in 0.2 mi SE 11.5 mph 18.4 mph N/A   Overcast
3:52 AM 21.2 °F 10.1 °F 19.4 °F 93% 29.68 in 0.2 mi SE 10.4 mph 16.1 mph N/A   Overcast
4:12 AM 21.2 °F 9.5 °F 19.4 °F 93% 29.67 in 0.5 mi SE 11.5 mph - N/A   Overcast
4:33 AM 21.2 °F 9.5 °F 19.4 °F 93% 29.66 in 1.0 mi SE 11.5 mph - N/A   Overcast
4:52 AM 21.2 °F 8.9 °F 19.4 °F 93% 29.65 in 1.0 mi SE 12.7 mph - N/A   Overcast
5:12 AM 21.2 °F 9.5 °F 19.4 °F 93% 29.63 in 0.8 mi SE 11.5 mph 19.6 mph N/A   Overcast
5:33 AM 21.2 °F 9.5 °F 19.4 °F 93% 29.62 in 0.8 mi SE 11.5 mph - 0.01 in   Overcast
5:53 AM 21.2 °F 8.9 °F 19.4 °F 93% 29.61 in 0.5 mi SE 12.7 mph 17.3 mph 0.01 in   Overcast
6:11 AM 23.0 °F 10.6 °F 19.4 °F 86% 29.60 in 1.2 mi SE 13.8 mph 19.6 mph N/A   Overcast
6:33 AM 23.0 °F 10.6 °F 21.2 °F 93% 29.59 in 1.0 mi SE 13.8 mph 19.6 mph N/A   Overcast
6:51 AM 23.0 °F 11.1 °F 21.2 °F 93% 29.58 in 1.0 mi SE 12.7 mph 18.4 mph N/A   Overcast
7:13 AM 23.0 °F 11.1 °F 21.2 °F 93% 29.57 in 0.8 mi SSE 12.7 mph 17.3 mph N/A   Overcast
7:31 AM 23.0 °F 11.1 °F 21.2 °F 93% 29.56 in 10.0 mi SE 12.7 mph 19.6 mph N/A   Overcast
7:52 AM 24.8 °F 12.4 °F 21.2 °F 86% 29.54 in 10.0 mi SE 15.0 mph 19.6 mph N/A   Overcast
8:12 AM 24.8 °F 13.4 °F 21.2 °F 86% 29.54 in 10.0 mi SSE 12.7 mph - N/A   Overcast
8:33 AM 24.8 °F 13.4 °F 21.2 °F 86% 29.53 in 10.0 mi SSE 12.7 mph 20.7 mph N/A   Overcast
8:52 AM 24.8 °F 13.4 °F 21.2 °F 86% 29.52 in 7.0 mi SE 12.7 mph 21.9 mph N/A   Overcast
9:13 AM 24.8 °F 11.9 °F 21.2 °F 86% 29.51 in 7.0 mi SSE 16.1 mph 21.9 mph N/A   Overcast
9:33 AM 26.6 °F 14.7 °F 23.0 °F 86% 29.50 in 5.0 mi SSE 15.0 mph 21.9 mph N/A   Overcast
9:52 AM 26.6 °F 13.1 °F 23.0 °F 86% 29.50 in 4.0 mi SSE 19.6 mph 24.2 mph N/A   Overcast
10:13 AM 26.6 °F 13.8 °F 23.0 °F 86% 29.50 in 3.0 mi SSE 17.3 mph 25.3 mph N/A   Overcast
10:33 AM 26.6 °F 15.7 °F 23.0 °F 86% 29.50 in 2.5 mi SSE 12.7 mph - N/A   Overcast
10:53 AM 26.6 °F 15.2 °F 23.0 °F 86% 29.50 in 3.0 mi SSE 13.8 mph - N/A   Overcast
11:13 AM 26.6 °F 16.2 °F 24.8 °F 93% 29.50 in 2.0 mi South 11.5 mph 16.1 mph N/A   Overcast
11:30 AM 26.6 °F 14.3 °F 24.8 °F 93% 29.50 in 3.0 mi SSW 16.1 mph 23.0 mph N/A   Overcast
11:53 AM 24.8 °F 11.9 °F 23.0 °F 93% 29.50 in 4.0 mi SSW 16.1 mph 21.9 mph N/A   Overcast
12:13 PM 24.8 °F 14.0 °F 21.2 °F 86% 29.50 in 7.0 mi SSW 11.5 mph - N/A   Overcast
12:33 PM 23.0 °F 11.7 °F 21.2 °F 93% 29.51 in 7.0 mi SSW 11.5 mph 19.6 mph N/A   Overcast
12:52 PM 23.0 °F 11.7 °F 19.4 °F 86% 29.50 in 10.0 mi SSW 11.5 mph 18.4 mph N/A   Overcast
1:11 PM 23.0 °F 10.1 °F 19.4 °F 86% 29.51 in 10.0 mi SW 15.0 mph 18.4 mph N/A   Overcast
1:32 PM 23.0 °F 10.1 °F 17.6 °F 80% 29.51 in 10.0 mi SW 15.0 mph 20.7 mph N/A   Overcast
1:51 PM 23.0 °F 12.4 °F 17.6 °F 80% 29.50 in 10.0 mi WSW 10.4 mph 17.3 mph N/A   Overcast
2:13 PM 23.0 °F 10.6 °F 15.8 °F 74% 29.51 in 7.0 mi SW 13.8 mph 19.6 mph N/A   Overcast
2:33 PM 21.2 °F 9.5 °F 14.0 °F 74% 29.51 in 7.0 mi WSW 11.5 mph 20.7 mph N/A   Overcast
2:53 PM 21.2 °F 9.5 °F 14.0 °F 74% 29.51 in 4.0 mi SW 11.5 mph 17.3 mph N/A   Overcast
3:11 PM 23.0 °F 12.4 °F 14.0 °F 68% 29.51 in 10.0 mi WSW 10.4 mph - N/A   Overcast
3:33 PM 21.2 °F 8.9 °F 14.0 °F 74% 29.51 in 5.0 mi SW 12.7 mph 18.4 mph N/A   Overcast
3:53 PM 21.2 °F 8.9 °F 14.0 °F 74% 29.51 in 3.0 mi SW 12.7 mph 21.9 mph N/A   Overcast
4:10 PM 21.2 °F 10.1 °F 14.0 °F 74% 29.51 in 3.0 mi SW 10.4 mph 17.3 mph N/A   Overcast
4:33 PM 21.2 °F 10.1 °F 14.0 °F 74% 29.52 in 3.0 mi WSW 10.4 mph 17.3 mph N/A   Overcast
4:51 PM 21.2 °F 8.9 °F 14.0 °F 74% 29.52 in 4.0 mi WSW 12.7 mph 18.4 mph N/A   Overcast
5:12 PM 21.2 °F 10.9 °F 15.8 °F 80% 29.53 in 2.5 mi WSW 9.2 mph - N/A   Overcast
5:32 PM 21.2 °F 9.5 °F 17.6 °F 86% 29.53 in 2.0 mi WSW 11.5 mph 16.1 mph N/A   Overcast
5:53 PM 21.2 °F 11.7 °F 17.6 °F 86% 29.54 in 2.0 mi WSW 8.1 mph 17.3 mph N/A   Overcast
6:13 PM 21.2 °F 10.9 °F 17.6 °F 86% 29.54 in 1.2 mi West 9.2 mph 16.1 mph N/A   Overcast
6:33 PM 21.2 °F 10.9 °F 17.6 °F 86% 29.55 in 1.5 mi West 9.2 mph - N/A   Overcast
6:53 PM 23.0 °F 11.7 °F 19.4 °F 86% 29.56 in 1.8 mi West 11.5 mph - N/A   Overcast
7:13 PM 21.2 °F 8.3 °F 15.8 °F 80% 29.57 in 4.0 mi WNW 13.8 mph 25.3 mph N/A   Overcast
7:33 PM 21.2 °F 6.4 °F 14.0 °F 74% 29.58 in 4.0 mi West 18.4 mph 28.8 mph N/A   Overcast
7:53 PM 19.4 °F 3.6 °F 14.0 °F 80% 29.58 in 4.0 mi WNW 19.6 mph 28.8 mph N/A   Overcast
8:11 PM 19.4 °F 5.0 °F 12.2 °F 74% 29.60 in 5.0 mi WNW 16.1 mph 25.3 mph N/A   Overcast
8:32 PM 19.4 °F 4.5 °F 12.2 °F 74% 29.60 in 7.0 mi WNW 17.3 mph 26.5 mph N/A   Overcast
8:52 PM 17.6 °F 1.7 °F 10.4 °F 73% 29.61 in 7.0 mi WNW 18.4 mph 24.2 mph N/A   Overcast
9:11 PM 17.6 °F 1.7 °F 10.4 °F 73% 29.63 in 4.0 mi WNW 18.4 mph 29.9 mph N/A   Overcast
9:33 PM 14.0 °F -0.8 °F 8.6 °F 79% 29.63 in 4.0 mi WNW 13.8 mph 27.6 mph N/A   Mostly Cloudy
9:53 PM 14.0 °F -0.8 °F 8.6 °F 79% 29.65 in 10.0 mi WNW 13.8 mph 23.0 mph N/A   Scattered Clouds
10:11 PM 14.0 °F -2.5 °F 8.6 °F 79% 29.65 in 10.0 mi WNW 17.3 mph 25.3 mph N/A   Mostly Cloudy
10:52 PM 12.2 °F -4.8 °F 6.8 °F 79% 29.68 in 5.0 mi WNW 17.3 mph 23.0 mph N/A   Overcast
11:13 PM 12.2 °F -1.8 °F 6.8 °F 79% 29.69 in 7.0 mi WNW 11.5 mph 24.2 mph N/A   Overcast
11:32 PM 12.2 °F -4.3 °F 5.0 °F 73% 29.69 in 10.0 mi WNW 16.1 mph 23.0 mph N/A   Mostly Cloudy
11:53 PM 12.2 °F -4.3 °F 5.0 °F 73% 29.69 in 10.0 mi WNW 16.1 mph 21.9 mph N/A   Scattered Clouds